Location: ??
(34.9170°N, 135.5016°E)
Time: 11:28:14
(UTC+00:00)

Cosmos 1833 Rocket - Pass Details

Date: 29 October 2020
Orbit: 832 x 840 km, 71.0° (Epoch: 27 November)

Event Time Altitude Azimuth Distance (km) Brightness Sun altitude
Exits shadow 20:16:15 12° 311° (NW) 2,303 4.5 -13.0°
Drops below altitude 10° 20:18:07 10° 331° (NNW) 2,460 4.8 -12.6°
Sets 20:22:19 0° 1° (N) 3,399 5.8 -11.8°
